Location: Audinghen
(50.8518°N, 1.6129°E)
Time: 10:40:04
(UTC+00:00)

Cosmos 1674 - Pass Details

Date: 07 August 2020
Orbit: 495 x 517 km, 82.5° (Epoch: 20 September)

Event Time Altitude Azimuth Distance (km) Brightness Sun altitude
Rises 01:33:28 0° 349° (N) 2,597 7.2 -19.7°
Reaches altitude 10° 01:35:35 10° 350° (N) 1,709 6.1 -19.6°
Maximum altitude 01:39:20 89° 76° (ENE) 505 2.5 -19.3°
Enters shadow 01:40:07 54° 169° (S) 612 2.7 -19.3°
